Location: Degersen
(52.2871°N, 9.5716°E)
Time: 14:24:40
(UTC+00:00)

SL-08 R/B - Visible Passes

Search period start: 19 April 2026 00:00
Search period end: 29 April 2026 00:00
Orbit: 667 x 729 km, 98.5° (Epoch: 19 April)

Date Brightness Start Highest point End Pass type
(mag) Time Alt. Az. Time Alt. Az. Time Alt. Az.
19 Apr 3.5 19:41:48 10° NNE 19:46:39 57° ESE 19:51:28 10° S visible
19 Apr 5.5 21:19:56 10° N 21:23:58 26° WNW 21:28:01 10° WSW visible
20 Apr 3.7 20:23:07 10° N 20:28:01 68° WNW 20:32:53 10° SSW visible
20 Apr 6.2 22:02:17 10° NNW 22:04:48 14° NW 22:07:18 10° W visible
21 Apr 3.8 19:26:56 10° NNE 19:31:37 43° E 19:36:16 10° S visible
21 Apr 5.1 21:04:46 10° N 21:09:09 33° WNW 21:13:30 10° SW visible
22 Apr 3.4 20:08:07 10° NNE 20:13:05 89° WNW 20:17:59 10° SSW visible
22 Apr 6.1 21:46:50 10° NNW 21:50:03 18° NW 21:53:16 10° W visible
23 Apr 4.1 19:12:08 10° NNE 19:16:34 32° E 19:20:56 10° SSE visible
23 Apr 4.6 20:49:39 10° N 20:54:17 43° WNW 20:58:53 10° SW visible
24 Apr 3.4 19:53:10 10° NNE 19:58:06 70° ESE 20:02:58 10° S visible
24 Apr 5.8 21:31:32 10° N 21:35:16 22° WNW 21:39:00 10° WSW visible
25 Apr 4.1 20:34:35 10° N 20:39:24 56° WNW 20:44:10 10° SW visible
25 Apr 6.4 22:14:13 10° NNW 22:16:01 12° NW 22:17:50 10° WNW visible
26 Apr 3.6 19:38:15 10° NNE 19:43:05 52° E 19:47:50 10° S visible
26 Apr 5.4 21:16:19 10° N 21:20:28 28° WNW 21:24:35 10° WSW visible
27 Apr 3.6 20:19:33 10° NNE 20:24:28 74° WNW 20:29:20 10° SSW visible
27 Apr 6.2 21:58:33 10° NNW 22:01:18 15° NW 22:04:01 10° W visible
28 Apr 3.9 19:23:25 10° NNE 19:28:02 39° E 19:32:35 10° SSE visible
28 Apr 5.0 21:01:09 10° N 21:05:37 36° WNW 21:10:02 10° SW visible
